Showing default

COSMOS 2518, 42719

Orbit data source: Space-Track

COSMOS 2518, 42719 is a payload satellite owned by VVKO VKS (CIS) in HEO that was launched on Thu, 25 May 2017 UTC via a SOYUZ-2-1B launch vehicle from the Plesetsk Missile And Space Complex (PKMTR). Payload-class satellites include a variety of spacecraft equipped with specific instruments for various scientific and technological missions. These include communications satellites like Starlink; space stations such as the ISS; scientific satellites like the Hubble; Earth observation satellites from companies like Planet Labs, Umbra, and HawkEye 360; GPS; miniature CubeSats for education and research; and military/defense satellites.

Loading next visibility...
Identifier
42719, 2017-027A
Orbit
HEO
Country
Flag of CISCIS
Related business
Manufacturer
RKKE/KOMET
Mission
Operational Defense Early Warn
Bus & Motor
14F142 EKS, Unknown motor
Mass
2,550 kg wet, ~2,000 kg dry
Launch date (UTC)
2017-05-25 (9 years ago)
Launch vehicle
SOYUZ-2-1B
Launch site
Plesetsk Missile And Space Complex (PKMTR)
Object type
Payload
Rocket body
Debris
Shape & HBR
Box + 2 Pan, 5.0 m
Radar Cross Section
14.304 m², Large (>1 m²)

Expand to show TLE details & history
Last TLE update: 11 hours ago

TLE from 11 hours ago
0 COSMOS 2518
1 42719U 17027A   26126.27818228 -.00001304  00000-0  00000+0 0  9993
2 42719  63.0741 253.4507 6993926 273.6081  15.7470  2.00930728 65560
Epoch: 2026-05-06T06:40Z
TLE epoch observation values (Epoch: 2026-05-06T06:40:34.948Z)
Latitude
0.00008°
Longitude
-70.90233°
Altitude
6,609.12 km
Speed
6.809 km/s
True Right ascension
16h 53m 32s
True Declination
0° 00' 00"
Sunlit
Object was in daylight at epoch
Visualization orbit readout
Latitude
Unknown
Longitude
Unknown
Altitude
Unknown
Speed
Unknown
Apparent Right ascension
Unknown
Apparent Declination
Unknown
Sunlit
N/A
Visualization observer readout
Local Sidereal Time
01:18:43
Azimuth
Unknown
Elevation
Unknown
Doppler factor
Unknown
Orbital elements
Apogee altitude
38,701.866 km
Perigee altitude
1,596.114 km
Semi-major axis
26,527.127 km
Eccentricity
0.69939
Inclination
63.0741°
RAAN
253.4507°
Arg. of periapsis
273.6081°
True anomaly
86.47624°
Mean anomaly
15.747°
Eccentric anomaly
43.15579°
Mean motion
0.50235 °/min
Orbital period
716.63 mins
BSTAR
0
Loading maneuver chart data...
Computing Atmospheric mass density...
Loading historical data...
Loading historical data...
Loading historical data...
Loading historical data...
Loading historical data...
Loading historical data...
Loading historical data...
Other satellites on launch #27 in the year 2017 (2017-05-25 UTC)

Documentation

Showing up to 5 results
|